loading
|

DELTA 1 R/B, 341

Orbit data source: Space-Track

DELTA 1 R/B, 341 is space debris originally from a launch on Tue, 10 Jul 1962 UTC launched from the Air Force Eastern Test Range (AFETR). Debris objects in space refer to the collection of defunct objects orbiting the Earth. Examples of debris include non-operational satellites, rocket bodies, and fragments generated from explosions, collisions, or faulty payload assembly.

Loading next visibility...
Loading greatness...
DELTA 1 R/B details
Identifier
341, 1962-029B
Orbit
Active
Last TLE update1 day ago
Origin
Flag of USGSFC (US)
ManufacturerABL
Mission statusUnknown
MissionUnknown
Bus & MotorALTAIR, Unknown motor
Mass24 kg wet, 24 kg dry
Launch date (UTC)
1962-07-10 (62 years ago)
Launch vehicleUnknown
Launch site
Air Force Eastern Test Range (AFETR)
Object type
Payload
Rocket body
Debris
Radar Cross Section0.46 m², Medium (>0.1 m² and < 1m²)

Expand to show TLE details & history

TLE from 1 day ago
0 DELTA 1 R/B
1 00341U 62029B   24250.54918385 -.00000111  00000-0 -51024-3 0  9993
2 00341  44.7953 346.3566 2417338  47.0929  17.7066  9.14277805 75792
Epoch: 2024-09-06T13:10Z
Definitive object data (Epoch: 2024-09-06T13:10:49.484Z)
Latitude43.38686°
Longitude-126.21327°
Altitude1,139.199 km
Speed8.057 km/s
True Right ascension03h 50m 27s
True Declination43° 13' 26"
Sunlit
Object was in daylight at TLE epoch
Predictive object data (real-time)
Latitude-10.78844°
Longitude-8.74963°
Altitude4,991.228 km
Speed5.374 km/s
Apparent Right ascension12h 10m 53s
Apparent Declination-44° 02' 27"
Sunlit
Object is in daylight
Predictive observer data (real-time)
Local Sidereal Time11:00:15
Azimuth167.363° S
Elevation4.548°
Doppler factor1
Orbital elements
Apogee5,619.686 km
Perigee948.347 km
Semi-major axis9,662.154 km
Eccentricity0.2417338
Inclination44.7953°
RAAN346.3566°
Arg. of periapsis47.0929°
True anomaly29.37646°
Mean anomaly17.7066°
Eccentric anomaly23.1522°
Mean motion2.28524 °/min
BSTAR-0.00051024
Period157.53 mins
No data available
Other satellites on launch #29 in the year 1962 (1962-07-10 UTC)

DELTA 1 R/B Visibility forecast

Observer location: 39.9160978°, -105.1181434

DELTA 1 R/B is not visible in the next 10 days
Span
Click to sort rows by Start time (UTC) header in descending order
Start Az.
Max El. time (UTC)
Max El. Az.
Max El.
End time (UTC)
End Az.